Location: ????????
(56.1167°N, 38.6333°E)
Time: 10:32:41
(UTC+00:00)

Cosmos 1346 Rocket - Pass Details

Date: 20 February 2026
Orbit: 476 x 485 km, 81.2° (Epoch: 11 March)

Event Time Altitude Azimuth Distance (km) Brightness Sun altitude
Rises 16:01:54 0° 193° (SSW) 2,530 6.4 -12.1°
Reaches altitude 10° 16:03:59 10° 193° (SSW) 1,657 5.4 -12.4°
Maximum altitude 16:07:37 90° 218° (SW) 490 2.5 -12.9°
Drops below altitude 10° 16:11:18 10° 15° (NNE) 1,678 5.1 -13.4°
Sets 16:13:25 0° 15° (NNE) 2,565 6.1 -13.7°
